Domov               UVHVVR             MKGP            O straneh              
ZDRAVSTVENO VARSTVO RASTLIN
  MREŽA AGROMET. POSTAJ
 ► PROGNOSTIČNA OBVESTILA
AGROMETEOROLOŠKI PODATKI -
ARSO
OBVLADOVANJE TVEGANJ ZARADI
NEUGODNIH VREMENSKIH RAZMER
  ► NARAVNE NESREČE
  ► SUŠA/MOČA
  ► NAMAKANJE
  ► ŽLED (gozdarstvo)
KARTOGRAFSKI PRIKAZI
SPLETNE POVEZAVE
PROJEKTI IN PUBLIKACIJE

AGROMETEOROLOŠKA MREŽA: VREMENSKE POSTAJE IN FENOLOŠKA OPAZOVANJA

Pregled podatkov za lokacijo Vidonci, meteorološka postaja 42838

Pregled senzorjev na lokaciji

ID Ime Zadnja
vrednost
Datum
zadnje
spremembe
Tip
senzorja
2110 Omočenost lista (U) 0 U 12.12.2017 00:30 A730WET
2111 Temperatura 2 m (°C) 10,85 °C 12.12.2017 00:30 50YA
2112 Relativna vlaga 2 m (% RH) 64,09 % RH 12.12.2017 00:30 50YA
2113 Padavine (mm) 0 mm 12.12.2017 00:30 Rain-O-Matic

Pregled podatkov zadnjih 24 ur

Zap.
št.
Datum in čas Vidonci
Omočenost
lista
Padavine Relativna
vlaga
2
m
Temperatura
2
m
0 12.12.2017 00:30 0 0 64,09 10,85
1 12.12.2017 00:00 0 0 63,32 11,23
2 11.12.2017 23:30 0 0 61,03 11,74
3 11.12.2017 23:00 0 0 63,49 11,2
4 11.12.2017 22:30 0 0 64,52 11,03
5 11.12.2017 22:00 0 0 65,33 10,96
6 11.12.2017 21:30 0 0 65,64 10,99
7 11.12.2017 21:00 0 0 66,31 10,93
8 11.12.2017 20:30 0 0 66,61 10,95
9 11.12.2017 20:00 0 0 66,66 11,02
10 11.12.2017 19:30 0 0 66,59 11,11
11 11.12.2017 19:00 0 0 66,44 11,21
12 11.12.2017 18:30 0 0 66,62 11,3
13 11.12.2017 18:00 0 0 68,28 11,03
14 11.12.2017 17:30 0 0 70,74 10,51
15 11.12.2017 17:00 0 0 74,33 9,84
16 11.12.2017 16:30 10 0 76,66 9,48
17 11.12.2017 16:00 10 0 80,21 8,93
18 11.12.2017 15:30 10 0,2 83,92 8,36
19 11.12.2017 15:00 10 0,2 81,19 8,35
20 11.12.2017 14:30 10 0,4 80,02 8,15
21 11.12.2017 14:00 10 0 81,93 7,64
22 11.12.2017 13:30 9 0,2 80,85 7,56
23 11.12.2017 13:00 10 0 79,28 7,49
24 11.12.2017 12:30 10 0 77,77 7,44
25 11.12.2017 12:00 10 0 75,23 7,6
26 11.12.2017 11:30 10 0 74,69 7,17
27 11.12.2017 11:00 2 0 73,68 6,74
28 11.12.2017 10:30 0 0 73,66 6,53
29 11.12.2017 10:00 0 0 75,05 5,99
30 11.12.2017 09:30 0 0 75,76 5,54
31 11.12.2017 09:00 0 0 77,26 5,09
32 11.12.2017 08:30 0 0 78,69 4,39
33 11.12.2017 08:00 0 0 78,75 4,36
34 11.12.2017 07:30 0 0 78,29 4,34
35 11.12.2017 07:00 0 0 80,66 4,06
36 11.12.2017 06:30 0 0 79,13 3,87
37 11.12.2017 06:00 0 0 76,73 4
38 11.12.2017 05:30 0 0 76,84 3,93
39 11.12.2017 05:00 0 0 76,23 3,89
40 11.12.2017 04:30 0 0 76,61 3,01
41 11.12.2017 04:00 0 0 77,79 2,64
42 11.12.2017 03:30 0 0 78,98 2,55
43 11.12.2017 03:00 0 0 79,81 2,52
44 11.12.2017 02:30 0 0,2 79,43 2,6
45 11.12.2017 02:00 0 0,2 80,97 2,48
© 2011 Ministrstvo za kmetijstvo, gozdarstvo in prehrano. Vse pravice pridržane.